• In Hungary
  • List of Countries
  • For 7 days
  • Water Temperature
  • Satellite Maps
  • Weather Map
  • News
  • Weather Widgets
  • user-avatar
    Login

    Hourly Weather Riesa

    Today, 20 October, Saturday

    Time Temperature Precipitation Wind Pressure Humidity
    00:00 +10°C° 0 mm 1 mps 759 mmHg 77%
    01:00 +10°C° 0 mm 1 mps 759 mmHg 77%
    02:00 +10°C° 0 mm 1 mps 759 mmHg 79%
    03:00 +9°C° 0 mm 1 mps 759 mmHg 80%
    04:00 +9°C° 0 mm 1 mps 759 mmHg 82%
    05:00 +8°C° 0 mm 1 mps 759 mmHg 84%
    06:00 +8°C° 0 mm 1 mps 760 mmHg 87%
    07:00 +7°C° 0 mm 1 mps 760 mmHg 89%
    08:00 +7°C° 0 mm 2 mps 760 mmHg 83%
    09:00 +9°C° 0 mm 2 mps 761 mmHg 77%
    10:00 +10°C° 0 mm 2 mps 761 mmHg 71%
    11:00 +10°C° 0 mm 3 mps 761 mmHg 68%
    12:00 +11°C° 0 mm 3 mps 761 mmHg 65%
    13:00 +11°C° 0 mm 3 mps 761 mmHg 62%
    14:00 +11°C° 0 mm 3 mps 761 mmHg 63%
    15:00 +11°C° 0 mm 3 mps 761 mmHg 63%
    16:00 +10°C° 0 mm 3 mps 761 mmHg 64%
    17:00 +10°C° 0 mm 2 mps 761 mmHg 67%
    18:00 +9°C° 0 mm 2 mps 761 mmHg 70%
    19:00 +9°C° 0 mm 1 mps 761 mmHg 74%
    20:00 +9°C° 0 mm 1 mps 761 mmHg 74%
    21:00 +9°C° 0 mm 1 mps 762 mmHg 74%
    22:00 +8°C° 0 mm 2 mps 762 mmHg 74%
    23:00 +8°C° 0 mm 2 mps 762 mmHg 76%

    Tomorrow, 21 October, Sunday

    Time Temperature Precipitation Wind Pressure Humidity
    00:00 +8°C° 0 mm 2 mps 761 mmHg 77%
    01:00 +8°C° 0 mm 2 mps 761 mmHg 78%
    02:00 +8°C° 0 mm 2 mps 761 mmHg 80%
    03:00 +8°C° 0 mm 2 mps 761 mmHg 82%
    04:00 +8°C° 0 mm 2 mps 761 mmHg 84%
    05:00 +7°C° 0 mm 2 mps 761 mmHg 87%
    06:00 +7°C° 0 mm 2 mps 761 mmHg 90%
    07:00 +6°C° 0 mm 2 mps 761 mmHg 93%
    08:00 +9°C° 0 mm 1 mps 761 mmHg 88%
    09:00 +10°C° 0 mm 1 mps 761 mmHg 83%
    10:00 +12°C° 0 mm 1 mps 761 mmHg 77%
    11:00 +13°C° 0 mm 1 mps 761 mmHg 73%
    12:00 +14°C° 0 mm 1 mps 761 mmHg 69%
    13:00 +13°C° 0 mm 0 mps 761 mmHg 64%
    14:00 +13°C° 0 mm 0 mps 761 mmHg 65%
    15:00 +13°C° 0 mm 0 mps 760 mmHg 65%
    16:00 +14°C° 0 mm 1 mps 760 mmHg 66%
    17:00 +12°C° 0 mm 1 mps 760 mmHg 71%
    18:00 +11°C° 0 mm 1 mps 760 mmHg 77%
    19:00 +9°C° 0 mm 1 mps 760 mmHg 83%
    20:00 +9°C° 0 mm 1 mps 760 mmHg 84%
    21:00 +9°C° 0 mm 1 mps 760 mmHg 86%
    22:00 +8°C° 0 mm 1 mps 761 mmHg 87%
    23:00 +8°C° 0 mm 1 mps 760 mmHg 88%

    Day after tomorrow, 22 October, Monday

    Time Temperature Precipitation Wind Pressure Humidity
    00:00 +8°C° 0 mm 1 mps 760 mmHg 88%
    01:00 +7°C° 0 mm 1 mps 760 mmHg 89%
    02:00 +6°C° 0 mm 2 mps 760 mmHg 89%
    03:00 +6°C° 0 mm 2 mps 760 mmHg 89%
    04:00 +6°C° 0 mm 2 mps 759 mmHg 89%
    05:00 +5°C° 0 mm 2 mps 759 mmHg 89%
    06:00 +5°C° 0 mm 2 mps 759 mmHg 89%
    07:00 +5°C° 0 mm 2 mps 759 mmHg 89%
    08:00 +7°C° 0 mm 2 mps 759 mmHg 81%
    09:00 +9°C° 0 mm 2 mps 759 mmHg 73%
    10:00 +12°C° 0 mm 2 mps 759 mmHg 65%
    11:00 +12°C° 0 mm 3 mps 759 mmHg 64%
    12:00 +12°C° 0 mm 3 mps 759 mmHg 63%
    13:00 +13°C° 0 mm 3 mps 759 mmHg 63%
    14:00 +12°C° 0.3 mm 3 mps 759 mmHg 70%
    15:00 +11°C° 0.3 mm 4 mps 759 mmHg 78%
    16:00 +10°C° 0.3 mm 4 mps 759 mmHg 86%
    17:00 +8°C° 0.8 mm 4 mps 759 mmHg 87%
    18:00 +8°C° 0.8 mm 4 mps 760 mmHg 88%
    19:00 +7°C° 0.8 mm 5 mps 760 mmHg 89%
    20:00 +7°C° 0.4 mm 4 mps 760 mmHg 88%
    21:00 +6°C° 0.4 mm 4 mps 761 mmHg 87%
    22:00 +7°C° 0.4 mm 3 mps 761 mmHg 86%
    23:00 +5°C° 0 mm 3 mps 761 mmHg 87%

    23 October, Tuesday

    Time Temperature Precipitation Wind Pressure Humidity
    00:00 +4°C° 0 mm 3 mps 761 mmHg 88%
    01:00 +4°C° 0 mm 3 mps 762 mmHg 90%
    02:00 +4°C° 0 mm 2 mps 762 mmHg 90%
    03:00 +4°C° 0 mm 2 mps 762 mmHg 91%
    04:00 +4°C° 0 mm 2 mps 761 mmHg 92%
    05:00 +3°C° 0 mm 2 mps 762 mmHg 93%
    06:00 +3°C° 0 mm 2 mps 762 mmHg 93%
    07:00 +2°C° 0 mm 3 mps 762 mmHg 94%
    08:00 +4°C° 0 mm 3 mps 761 mmHg 88%
    09:00 +5°C° 0 mm 4 mps 761 mmHg 82%
    10:00 +7°C° 0 mm 5 mps 760 mmHg 76%
    11:00 +8°C° 0 mm 6 mps 760 mmHg 73%
    12:00 +8°C° 0 mm 6 mps 759 mmHg 69%
    13:00 +9°C° 0 mm 7 mps 758 mmHg 66%
    14:00 +9°C° 0.2 mm 7 mps 757 mmHg 69%
    15:00 +9°C° 0.2 mm 7 mps 756 mmHg 73%
    16:00 +8°C° 0.2 mm 7 mps 756 mmHg 76%
    17:00 +7°C° 0.9 mm 8 mps 755 mmHg 78%
    18:00 +7°C° 0.9 mm 9 mps 754 mmHg 81%
    19:00 +7°C° 0.9 mm 9 mps 753 mmHg 84%
    20:00 +7°C° 0.5 mm 10 mps 752 mmHg 84%
    21:00 +8°C° 0.5 mm 10 mps 752 mmHg 84%
    22:00 +8°C° 0.5 mm 10 mps 751 mmHg 84%
    23:00 +9°C° 0.5 mm 10 mps 750 mmHg 85%

    24 October, Wednesday

    Time Temperature Precipitation Wind Pressure Humidity
    00:00 +9°C° 0.5 mm 10 mps 750 mmHg 85%
    01:00 +11°C° 0.5 mm 10 mps 749 mmHg 86%
    02:00 +11°C° 0.5 mm 10 mps 749 mmHg 86%
    03:00 +11°C° 0.5 mm 9 mps 749 mmHg 86%
    04:00 +12°C° 0.5 mm 9 mps 749 mmHg 86%
    05:00 +11°C° 0.2 mm 8 mps 749 mmHg 85%
    06:00 +11°C° 0.2 mm 8 mps 749 mmHg 84%
    07:00 +11°C° 0.2 mm 8 mps 750 mmHg 83%
    08:00 +11°C° 0.2 mm 7 mps 750 mmHg 83%
    09:00 +11°C° 0.2 mm 7 mps 750 mmHg 83%
    10:00 +10°C° 0.2 mm 7 mps 750 mmHg 83%
    11:00 +10°C° 0.4 mm 6 mps 750 mmHg 84%
    12:00 +11°C° 0.4 mm 6 mps 750 mmHg 85%
    13:00 +11°C° 0.4 mm 6 mps 750 mmHg 87%
    14:00 +11°C° 0.2 mm 6 mps 751 mmHg 87%
    15:00 +12°C° 0.2 mm 5 mps 751 mmHg 87%
    16:00 +12°C° 0.2 mm 5 mps 751 mmHg 87%
    17:00 +12°C° 0.2 mm 5 mps 751 mmHg 88%
    18:00 +12°C° 0.2 mm 5 mps 752 mmHg 88%
    19:00 +12°C° 0.2 mm 5 mps 752 mmHg 89%
    20:00 +11°C° 0.2 mm 6 mps 752 mmHg 89%
    21:00 +11°C° 0.2 mm 6 mps 753 mmHg 88%
    22:00 +11°C° 0.2 mm 7 mps 753 mmHg 87%
    23:00 +11°C° 0.1 mm 6 mps 753 mmHg 87%

    25 October, Thursday

    Time Temperature Precipitation Wind Pressure Humidity
    00:00 +11°C° 0.1 mm 6 mps 753 mmHg 88%
    01:00 +10°C° 0.1 mm 6 mps 753 mmHg 88%
    02:00 +10°C° 0.1 mm 6 mps 753 mmHg 89%
    03:00 +11°C° 0.1 mm 6 mps 753 mmHg 89%
    04:00 +11°C° 0.1 mm 6 mps 753 mmHg 90%
    05:00 +11°C° 0.1 mm 6 mps 753 mmHg 90%
    06:00 +11°C° 0.1 mm 6 mps 753 mmHg 89%
    07:00 +11°C° 0.1 mm 7 mps 752 mmHg 88%
    08:00 +12°C° 0.1 mm 7 mps 752 mmHg 84%
    09:00 +12°C° 0.1 mm 8 mps 752 mmHg 80%
    10:00 +12°C° 0.1 mm 8 mps 752 mmHg 76%
    11:00 +12°C° 0.1 mm 8 mps 752 mmHg 75%
    12:00 +12°C° 0.1 mm 8 mps 752 mmHg 74%
    13:00 +12°C° 0.1 mm 8 mps 751 mmHg 74%
    14:00 +12°C° 0.1 mm 8 mps 751 mmHg 74%
    15:00 +11°C° 0.1 mm 7 mps 751 mmHg 75%
    16:00 +11°C° 0.1 mm 7 mps 751 mmHg 75%
    17:00 +10°C° 0 mm 7 mps 751 mmHg 76%
    18:00 +10°C° 0 mm 7 mps 751 mmHg 76%
    19:00 +9°C° 0 mm 7 mps 751 mmHg 77%
    20:00 +9°C° 0 mm 7 mps 750 mmHg 77%
    21:00 +9°C° 0 mm 8 mps 750 mmHg 77%
    22:00 +9°C° 0 mm 8 mps 750 mmHg 77%
    23:00 +9°C° 0.1 mm 8 mps 750 mmHg 78%
    Show more